TimeHST,TemperatureF,Dew PointF,Humidity,Sea Level PressureIn,VisibilityMPH,Wind Direction,Wind SpeedMPH,Gust SpeedMPH,PrecipitationIn,Events,Conditions,WindDirDegrees,DateUTC
12:53 AM,68.0,57.9,70,30.07,10.0,SW,5.8,-,N/A,,Partly Cloudy,230,2013-06-25 10:53:00
1:53 AM,66.9,57.9,73,30.06,10.0,SW,6.9,-,N/A,,Scattered Clouds,230,2013-06-25 11:53:00
2:53 AM,66.9,57.0,70,30.04,10.0,WSW,8.1,-,N/A,,Overcast,240,2013-06-25 12:53:00
3:53 AM,66.9,55.9,68,30.04,10.0,WSW,8.1,-,N/A,,Scattered Clouds,240,2013-06-25 13:53:00
4:53 AM,69.1,57.0,65,30.04,10.0,SSW,4.6,-,N/A,,Overcast,210,2013-06-25 14:53:00
5:53 AM,69.1,60.1,73,30.06,10.0,SSW,5.8,-,N/A,,Mostly Cloudy,200,2013-06-25 15:53:00
6:53 AM,73.0,60.1,64,30.07,10.0,Calm,Calm,-,N/A,,Scattered Clouds,0,2013-06-25 16:53:00
7:53 AM,77.0,62.1,60,30.07,10.0,Calm,Calm,-,N/A,,Scattered Clouds,0,2013-06-25 17:53:00
8:53 AM,77.0,66.0,69,30.08,10.0,East,13.8,-,N/A,,Mostly Cloudy,80,2013-06-25 18:53:00
9:53 AM,75.9,66.0,71,30.09,9.0,ENE,3.5,-,0.00,,Overcast,60,2013-06-25 19:53:00
10:48 AM,78.8,66.2,65,30.08,10.0,Variable,5.8,-,N/A,,Mostly Cloudy,0,2013-06-25 20:48:00
10:53 AM,79.0,64.9,62,30.07,10.0,Variable,4.6,-,N/A,,Mostly Cloudy,0,2013-06-25 20:53:00
11:53 AM,82.0,66.0,58,30.06,10.0,East,8.1,-,N/A,,Mostly Cloudy,100,2013-06-25 21:53:00
12:53 PM,82.9,66.0,56,30.05,10.0,ENE,5.8,-,N/A,,Mostly Cloudy,60,2013-06-25 22:53:00
1:53 PM,82.9,66.0,56,30.04,10.0,East,9.2,-,N/A,,Mostly Cloudy,100,2013-06-25 23:53:00
2:53 PM,82.9,66.9,58,30.03,10.0,NE,10.4,-,N/A,,Scattered Clouds,50,2013-06-26 00:53:00
3:53 PM,82.0,66.9,60,30.02,10.0,ENE,10.4,-,N/A,,Mostly Cloudy,60,2013-06-26 01:53:00
4:10 PM,81.0,66.0,60,30.02,10.0,East,11.5,-,N/A,,Overcast,90,2013-06-26 02:10:00
4:46 PM,79.0,66.0,64,30.03,10.0,East,9.2,-,N/A,,Overcast,100,2013-06-26 02:46:00
4:53 PM,79.0,66.0,64,30.02,10.0,ENE,9.2,-,N/A,,Overcast,70,2013-06-26 02:53:00
5:53 PM,78.1,64.9,64,30.03,10.0,NE,8.1,-,N/A,,Overcast,50,2013-06-26 03:53:00
6:14 PM,77.0,64.9,66,30.04,10.0,East,6.9,-,N/A,,Overcast,80,2013-06-26 04:14:00
6:24 PM,77.0,64.9,66,30.04,10.0,East,8.1,-,N/A,,Overcast,80,2013-06-26 04:24:00
6:53 PM,75.9,64.9,69,30.05,10.0,East,4.6,-,N/A,,Overcast,90,2013-06-26 04:53:00
7:53 PM,75.0,66.0,73,30.06,10.0,East,4.6,-,N/A,,Overcast,80,2013-06-26 05:53:00
8:53 PM,75.0,66.0,73,30.08,10.0,ENE,3.5,-,N/A,,Overcast,60,2013-06-26 06:53:00
9:53 PM,73.9,66.9,79,30.09,10.0,Calm,Calm,-,N/A,,Mostly Cloudy,0,2013-06-26 07:53:00
10:03 PM,73.9,66.9,79,30.10,10.0,Calm,Calm,-,N/A,,Overcast,0,2013-06-26 08:03:00
10:25 PM,73.9,66.9,79,30.10,10.0,ENE,3.5,-,N/A,,Mostly Cloudy,60,2013-06-26 08:25:00
10:53 PM,73.9,66.9,79,30.10,10.0,Calm,Calm,-,N/A,,Overcast,0,2013-06-26 08:53:00
11:35 PM,73.0,66.9,81,30.10,10.0,West,4.6,-,N/A,,Mostly Cloudy,260,2013-06-26 09:35:00
11:53 PM,73.0,66.9,81,30.09,10.0,WSW,5.8,-,N/A,,Overcast,250,2013-06-26 09:53:00